ICEYE-X51

operational
NORAD ID: 63257 Int'l Des: 2025-052 Owner: ICEUS Country: US
LEOCIRCULARRETROGRADESSO

关于 ICEYE-X51

正在加载描述...

实时位置

正在加载3D地球...

即将过境

高度历史

Altitude vs Time

uPlot chart will show altitude changes over time

两行轨道根数

1 63257U 25052AZ 25340.85273256 .00010074 00000-0 79282-3 0 9992
2 63257 97.7139 231.8360 0002471 59.5240 300.6228 15.01019400 39951
Epoch: Dec 6, 2025 • Age: 21 hours

当前状态

高度 564.8 km
速度 7.58 km/s
星下点 12.16°N, 105.47°W
发射日期 Mar 15, 2025
运行时间 0.7 years
类型 earth observation

技术详情

分类 Payload
质量 80.00 kg
干质量 80.00 kg
总质量 80.00 kg
长度 0.80 m
直径 0.60 m
跨度 1.50 m
形状 Box + pan
制造商 ICEYE
平台类型 ICEYE
阶段状态 In Orbit
所有者/国家 ICEUS/US

大型星座

Loading constellations...